Location: Blue Sky Observatory
(43.1153°N, 70.9036°W)
Time: 12:17:58
(UTC-05:00)

Amateur Radio Satellites - All Passes

Search period start: 24 February 2017 11:47
Search period end: 25 February 2017 11:47
Location: Blue Sky Observatory, 43.1153°N, 70.9036°W

Satellite Date Start Highest point End Downlink Frequencies (MHz)
Time Altitude Azimuth
LO-87 24 Feb 11:55:06 11:57:15 15° 294° (WNW) 11:59:23 145.935 - 145.965
AO-7 24 Feb 12:03:40 12:08:27 17° 45° (NE) 12:13:13 .
ESTCUBE 1 24 Feb 12:04:22 12:08:24 34° 291° (WNW) 12:12:26 437.505/2401.250
ISS 24 Feb 12:07:16 12:09:51 20° 10° (N) 12:12:25 437.550
BUGSAT 1 24 Feb 12:07:44 12:11:19 30° 264° (W) 12:14:58 437.445
Oscar 19 24 Feb 12:19:08 12:24:17 87° 75° (ENE) 12:29:28 437.125/150
50 SAT 24 Feb 12:27:32 12:30:58 64° 285° (WNW) 12:34:24 437.505
DX 1 24 Feb 12:29:56 12:34:17 69° 102° (ESE) 12:38:36 434.975-435.025
VELOX 1 24 Feb 12:34:38 12:38:52 47° 289° (WNW) 12:43:07 145.980
Tancredo 1 24 Feb 12:35:54 12:38:40 25° 17° (NNE) 12:41:23 437.200
AO-85 24 Feb 12:42:43 12:46:38 66° 55° (NE) 12:50:33 145.980
UKube-1 24 Feb 12:44:25 12:48:44 71° 103° (ESE) 12:53:02 .
SPROUT 24 Feb 12:51:39 12:55:37 36° 290° (WNW) 12:59:34 437.525
ITAMSAT 1 24 Feb 12:51:58 12:55:43 21° 61° (ENE) 12:59:30 435.822/435.867
Gurwin Techsat 1B 24 Feb 12:54:40 12:59:59 81° 256° (WSW) 13:05:20 435.225
ISS 24 Feb 13:43:32 13:46:48 59° 30° (NNE) 13:50:03 437.550
AO-7 24 Feb 13:51:26 13:59:40 66° 66° (ENE) 14:07:55 .
ITUPSAT 1 24 Feb 13:56:45 14:00:55 29° 96° (E) 14:05:02 437.325
Oscar 19 24 Feb 14:02:40 14:04:16 11° 272° (W) 14:05:53 437.125/150
BEESAT 24 Feb 14:03:56 14:08:19 34° 97° (E) 14:12:40 436.000
DX 1 24 Feb 14:07:56 14:09:55 13° 299° (WNW) 14:11:53 434.975-435.025
Tancredo 1 24 Feb 14:11:59 14:15:13 75° 215° (SW) 14:18:24 437.200
UKube-1 24 Feb 14:22:23 14:24:12 12° 299° (WNW) 14:25:59 .
AO-85 24 Feb 14:25:21 14:26:28 11° 251° (WSW) 14:27:35 145.980
ITAMSAT 1 24 Feb 14:29:39 14:34:45 56° 259° (W) 14:39:54 435.822/435.867
BEESAT 3 24 Feb 14:32:22 14:36:20 56° 54° (NE) 14:40:16 437.485
MOZHAYETS 4 24 Feb 14:34:40 14:38:33 26° 95° (E) 14:42:25
PCSat 24 Feb 14:46:51 14:50:06 16° 104° (ESE) 14:53:22 145.827
BEESAT 2 24 Feb 15:08:13 15:12:13 56° 53° (NE) 15:16:12 435.950
KKS-1 24 Feb 15:13:55 15:16:50 17° 92° (E) 15:19:47 437.445
ISS 24 Feb 15:20:38 15:22:59 18° 226° (SW) 15:25:18 437.550
CUBESAT XI-V 24 Feb 15:31:49 15:34:50 17° 91° (E) 15:37:48 437.345
CUTE-I 24 Feb 15:33:19 15:35:45 13° 57° (ENE) 15:38:10 437.470
ITUPSAT 1 24 Feb 15:34:28 15:38:43 32° 293° (WNW) 15:42:57 437.325
BEESAT 24 Feb 15:41:56 15:45:58 27° 294° (WNW) 15:49:57 436.000
AO-7 24 Feb 15:45:56 15:52:57 29° 265° (W) 16:00:00 .
LilacSat-2 24 Feb 15:49:20 15:50:53 12° 63° (ENE) 15:52:26 437.200
NO-84 24 Feb 15:50:25 15:51:44 12° 123° (ESE) 15:53:05 435.350 FM
STARS 24 Feb 15:50:40 15:53:49 19° 93° (E) 15:56:56 437.465
BEESAT 3 24 Feb 16:11:21 16:13:29 14° 250° (WSW) 16:15:37 437.485
MOZHAYETS 4 24 Feb 16:11:37 16:15:43 32° 292° (WNW) 16:19:47
PCSat 24 Feb 16:27:26 16:32:51 73° 302° (WNW) 16:38:18 145.827
RS-15 24 Feb 16:27:50 16:38:59 49° 110° (ESE) 16:50:31 29.354- 29.394
DOVE 4 24 Feb 16:32:21 16:36:11 38° 71° (ENE) 16:40:04 437.250
M-CUBED/EXP-1 PRIME 24 Feb 16:37:41 16:40:49 24° 102° (ESE) 16:44:09 437.505
KAITUO 1B 24 Feb 16:44:29 16:48:03 38° 72° (ENE) 16:51:37 145.475/437.950
BEESAT 2 24 Feb 16:47:19 16:49:32 14° 250° (WSW) 16:51:45 435.950
XW-2F 24 Feb 16:47:26 16:51:09 50° 74° (ENE) 16:54:54 145.980 - 146.000
KKS-1 24 Feb 16:49:20 16:53:39 48° 289° (WNW) 16:57:57 437.445
XW-2D 24 Feb 16:51:24 16:55:11 60° 75° (ENE) 16:59:01 145.860 - 145.880
XW-2B 24 Feb 16:56:24 17:00:12 67° 75° (ENE) 17:04:04 145.730 - 145.750
XW-2C 24 Feb 17:04:58 17:08:49 86° 71° (ENE) 17:12:42 145.795 - 145.815
CUBESAT XI-V 24 Feb 17:08:02 17:12:29 50° 288° (WNW) 17:16:54 437.345
CUTE-I 24 Feb 17:09:38 17:14:58 87° 76° (ENE) 17:20:21 437.470
XW-2A 24 Feb 17:16:26 17:18:35 16° 67° (ENE) 17:20:46 145.665 - 145.685
NUDT-PHONESAT 24 Feb 17:20:21 17:24:07 75° 258° (WSW) 17:27:55 437.300
LilacSat-2 24 Feb 17:20:51 17:24:41 58° 260° (W) 17:28:32 437.200
HO-68 24 Feb 17:24:59 17:31:23 37° 62° (ENE) 17:37:49 435.675
NO-84 24 Feb 17:25:32 17:28:48 70° 321° (NW) 17:32:25 435.350 FM
STARS 24 Feb 17:26:08 17:30:20 43° 290° (WNW) 17:34:31 437.465
CUTE 1.7 + AOD 2 24 Feb 17:29:45 17:32:50 20° 66° (ENE) 17:35:57 437.475
CUBEBUG 2 24 Feb 17:39:41 17:41:39 13° 60° (ENE) 17:43:39 437.445
DOVE 4 24 Feb 18:11:18 18:14:05 17° 268° (W) 18:16:54 437.250
M-CUBED/EXP-1 PRIME 24 Feb 18:12:05 18:15:15 27° 295° (WNW) 18:18:37 437.505
PCSat 24 Feb 18:14:03 18:17:13 15° 323° (NW) 18:20:24 145.827
UWE-3 24 Feb 18:17:34 18:20:47 20° 64° (ENE) 18:24:04 435.000/436.395/437.385
KAITUO 1B 24 Feb 18:19:56 18:22:14 15° 268° (W) 18:24:33 145.475/437.950
AAUSAT CUBESAT 2 24 Feb 18:20:31 18:23:46 22° 67° (ENE) 18:27:01 437.432
XW-2F 24 Feb 18:24:01 18:25:36 12° 270° (W) 18:27:11 145.980 - 146.000
SEEDS 24 Feb 18:27:33 18:31:41 53° 73° (ENE) 18:35:48 437.485
XW-2D 24 Feb 18:29:13 18:29:46 10° 271° (W) 18:30:19 145.860 - 145.880
RS-15 24 Feb 18:39:30 18:51:20 59° 314° (NW) 19:03:34 29.354- 29.394
ZACube-1 24 Feb 18:40:33 18:43:50 20° 65° (ENE) 18:47:11 437.345
XW-2A 24 Feb 18:48:07 18:51:08 29° 263° (W) 18:54:11 145.665 - 145.685
STRAND 1 24 Feb 18:48:10 18:53:09 46° 99° (E) 18:58:04 437.568
CUTE-I 24 Feb 18:53:40 18:55:43 12° 272° (W) 18:57:46 437.470
CUTE 1.7 + AOD 2 24 Feb 19:04:23 19:08:24 39° 262° (W) 19:12:27 437.475
NO-84 24 Feb 19:04:32 19:07:05 18° 344° (NNW) 19:09:48 435.350 FM
HO-68 24 Feb 19:12:05 19:18:57 47° 261° (W) 19:25:49 435.675
CUBEBUG 2 24 Feb 19:13:11 19:17:36 74° 259° (W) 19:22:12 437.445
AO-73 24 Feb 19:28:14 19:32:34 56° 73° (ENE) 19:37:02 145.935
Oscar 11 24 Feb 19:36:10 19:40:27 59° 74° (ENE) 19:44:45 .
YUBILEINY 24 Feb 19:45:16 19:52:17 26° 65° (ENE) 19:59:13 435.215
UWE-3 24 Feb 19:52:37 19:56:53 45° 262° (W) 20:01:17 435.000/436.395/437.385
AAUSAT CUBESAT 2 24 Feb 19:55:19 19:59:04 32° 264° (W) 20:02:49 437.432
DELFI C3 24 Feb 20:00:13 20:03:47 33° 70° (ENE) 20:07:21 145.870
SEEDS 24 Feb 20:05:27 20:07:41 14° 270° (W) 20:09:54 437.485
ZACube-1 24 Feb 20:15:34 20:19:48 42° 262° (W) 20:24:08 437.345
PRISM 24 Feb 20:19:16 20:21:51 16° 93° (E) 20:24:25 437.425
STRAND 1 24 Feb 20:27:58 20:32:01 24° 296° (WNW) 20:36:04 437.568
NO-84 24 Feb 20:43:50 20:46:01 14° 6° (N) 20:48:17 435.350 FM
RS-15 24 Feb 20:57:08 21:07:18 29° 345° (NNW) 21:17:33 29.354- 29.394
LO-87 24 Feb 20:58:36 21:01:02 18° 67° (ENE) 21:03:29 145.935 - 145.965
AO-73 24 Feb 21:06:37 21:09:10 15° 270° (W) 21:11:45 145.935
FO-29 24 Feb 21:07:43 21:13:01 20° 86° (E) 21:17:58 435.910
Oscar 11 24 Feb 21:14:53 21:16:57 13° 270° (W) 21:19:02 .
SO-50 24 Feb 21:15:33 21:19:24 25° 113° (ESE) 21:23:13 436.795
ESTCUBE 1 24 Feb 21:28:20 21:32:02 25° 67° (ENE) 21:35:45 437.505/2401.250
DELFI C3 24 Feb 21:35:45 21:38:38 19° 267° (W) 21:41:33 145.870
YUBILEINY 24 Feb 21:41:15 21:49:57 73° 266° (W) 21:58:34 435.215
UNISAT 6 24 Feb 21:49:45 21:54:29 70° 101° (ESE) 21:59:07 437.425
TIGRISAT 24 Feb 21:50:18 21:55:00 66° 101° (E) 21:59:38 435.000
PRISM 24 Feb 21:53:29 21:57:20 42° 289° (WNW) 22:01:10 437.425
VELOX 1 24 Feb 21:57:43 22:00:39 18° 64° (ENE) 22:03:35 145.980
O/OREOS (USA 219) 24 Feb 22:01:46 22:05:55 39° 106° (ESE) 22:10:06 437.305
AIST 2D 24 Feb 22:01:56 22:02:42 11° 90° (E) 22:03:28 435.315
SPROUT 24 Feb 22:10:59 22:13:57 19° 65° (ENE) 22:16:57 437.525
NO-84 24 Feb 22:21:16 22:24:46 28° 26° (NNE) 22:28:27 435.350 FM
LO-87 24 Feb 22:31:11 22:34:18 29° 263° (W) 22:37:26 145.935 - 145.965
DUCHIFAT 1 24 Feb 22:48:35 22:51:54 22° 94° (E) 22:55:11 145.980
FO-29 24 Feb 22:51:11 22:58:57 82° 286° (WNW) 23:05:58 435.910
SO-50 24 Feb 22:55:14 22:59:40 42° 311° (NW) 23:04:04 436.795
EO-79 24 Feb 22:58:09 23:02:02 32° 97° (E) 23:05:53 145.935-145.965
50 SAT 24 Feb 23:02:09 23:05:33 52° 74° (ENE) 23:08:59 437.505
ESTCUBE 1 24 Feb 23:04:37 23:08:41 33° 263° (W) 23:12:47 437.505/2401.250
RS-15 24 Feb 23:14:30 23:25:05 31° 20° (NNE) 23:35:27 29.354- 29.394
POLYITAN 1 24 Feb 23:15:15 23:19:27 50° 100° (E) 23:23:37 437.675
NANOSAT C BR1 24 Feb 23:15:24 23:19:32 46° 99° (E) 23:23:38 145.865
QB50P2 24 Feb 23:18:09 23:22:24 59° 100° (E) 23:26:38 145.880/145.840
DX 1 24 Feb 23:26:02 23:30:19 66° 74° (ENE) 23:34:38 434.975-435.025
UNISAT 6 24 Feb 23:28:04 23:30:35 14° 299° (WNW) 23:33:05 437.425
TIGRISAT 24 Feb 23:28:27 23:31:07 15° 299° (WNW) 23:33:47 435.000
PCSat 24 Feb 23:31:46 23:35:50 21° 42° (NE) 23:39:53 145.827
VELOX 1 24 Feb 23:32:30 23:36:44 47° 260° (W) 23:41:00 145.980
AIST 2D 24 Feb 23:32:46 23:36:14 48° 286° (WNW) 23:39:39 435.315
UKube-1 24 Feb 23:39:28 23:43:43 67° 73° (ENE) 23:47:59 .
YUBILEINY 24 Feb 23:41:11 23:45:04 14° 287° (WNW) 23:48:58 435.215
O/OREOS (USA 219) 24 Feb 23:41:52 23:45:27 23° 304° (NW) 23:49:04 437.305
SPROUT 24 Feb 23:45:32 23:49:33 42° 261° (W) 23:53:38 437.525
BUGSAT 1 24 Feb 23:47:54 23:51:45 33° 97° (E) 23:55:37 437.445
NO-84 24 Feb 23:58:38 00:02:45 66° 223° (SW) 00:07:06 435.350 FM
DUCHIFAT 1 25 Feb 00:23:46 00:27:38 34° 290° (WNW) 00:31:30 145.980
Oscar 19 25 Feb 00:30:07 00:34:30 28° 95° (E) 00:38:52 437.125/150
EO-79 25 Feb 00:34:13 00:37:38 24° 293° (WNW) 00:41:02 145.935-145.965
FO-29 25 Feb 00:37:42 00:42:43 19° 307° (NW) 00:47:32 435.910
NANOSAT C BR1 25 Feb 00:52:05 00:54:53 17° 296° (WNW) 00:57:42 145.865
POLYITAN 1 25 Feb 00:52:09 00:54:50 16° 297° (WNW) 00:57:30 437.675
QB50P2 25 Feb 00:55:25 00:57:43 14° 298° (WNW) 01:00:01 145.880/145.840
ITUPSAT 1 25 Feb 01:04:10 01:08:35 38° 69° (ENE) 01:13:02 437.325
DX 1 25 Feb 01:05:27 01:06:56 12° 270° (W) 01:08:27 434.975-435.025
Gurwin Techsat 1B 25 Feb 01:10:04 01:15:00 37° 97° (E) 01:19:54 435.225
BEESAT 25 Feb 01:11:00 01:15:33 45° 70° (ENE) 01:20:06 436.000
PCSat 25 Feb 01:14:23 01:19:50 76° 243° (WSW) 01:25:14 145.827
UKube-1 25 Feb 01:18:46 01:20:11 11° 270° (W) 01:21:36 .
BUGSAT 1 25 Feb 01:23:36 01:26:56 23° 294° (WNW) 01:30:16 437.445
RS-15 25 Feb 01:28:04 01:40:26 69° 50° (NE) 01:52:17 29.354- 29.394
MOZHAYETS 4 25 Feb 01:37:18 01:41:17 29° 68° (ENE) 01:45:17
AO-7 25 Feb 01:53:38 01:58:58 18° 90° (E) 02:04:15 .
Oscar 19 25 Feb 02:09:12 02:13:53 37° 292° (WNW) 02:18:33 437.125/150
KKS-1 25 Feb 02:13:02 02:16:06 19° 64° (ENE) 02:19:10 437.445
CUBESAT XI-V 25 Feb 02:36:02 02:39:23 20° 64° (ENE) 02:42:44 437.345
ITAMSAT 1 25 Feb 02:41:24 02:46:28 47° 100° (E) 02:51:28 435.822/435.867
ITUPSAT 1 25 Feb 02:42:36 02:46:30 25° 266° (W) 02:50:27 437.325
STARS 25 Feb 02:48:22 02:51:30 20° 64° (ENE) 02:54:39 437.465
BEESAT 25 Feb 02:49:58 02:53:32 21° 267° (W) 02:57:06 436.000
Gurwin Techsat 1B 25 Feb 02:50:14 02:54:49 30° 294° (WNW) 02:59:24 435.225
AO-85 25 Feb 02:59:04 03:02:03 17° 112° (ESE) 03:04:55 145.980
MOZHAYETS 4 25 Feb 03:14:17 03:18:22 30° 264° (W) 03:22:29
M-CUBED/EXP-1 PRIME 25 Feb 03:25:13 03:28:09 31° 66° (ENE) 03:31:04 437.505
RS-15 25 Feb 03:41:23 03:52:11 39° 254° (WSW) 04:02:37 29.354- 29.394
AO-7 25 Feb 03:44:26 03:52:49 88° 108° (ESE) 04:01:07 .
KKS-1 25 Feb 03:48:04 03:52:19 46° 261° (W) 03:56:35 437.445
CUBESAT XI-V 25 Feb 04:11:57 04:16:26 46° 261° (W) 04:20:55 437.345
ITAMSAT 1 25 Feb 04:21:29 04:25:37 24° 297° (WNW) 04:29:44 435.822/435.867
STARS 25 Feb 04:23:24 04:27:32 42° 261° (W) 04:31:43 437.465
STRAND 1 25 Feb 04:30:47 04:31:41 10° 55° (NE) 04:32:35 437.568
DOVE 4 25 Feb 04:31:23 04:32:47 11° 89° (E) 04:34:12 437.250
AO-85 25 Feb 04:37:43 04:42:08 54° 307° (NW) 04:46:17 145.980
LilacSat-2 25 Feb 04:54:29 04:56:33 14° 91° (E) 04:58:37 437.200
M-CUBED/EXP-1 PRIME 25 Feb 05:01:02 05:02:46 14° 261° (W) 05:04:30 437.505
CUTE-I 25 Feb 05:26:00 05:30:48 32° 96° (E) 05:35:34 437.470
AO-7 25 Feb 05:38:24 05:44:35 24° 309° (NW) 05:50:46 .
SO-50 25 Feb 05:45:17 05:49:20 31° 46° (NE) 05:53:20 436.795
KAITUO 1B 25 Feb 05:48:34 05:52:14 47° 99° (E) 05:55:51 145.475/437.950
XW-2F 25 Feb 05:52:38 05:56:28 65° 102° (ESE) 06:00:12 145.980 - 146.000
XW-2D 25 Feb 05:57:03 06:00:54 79° 101° (E) 06:04:42 145.860 - 145.880
BEESAT 3 25 Feb 06:00:08 06:04:00 73° 122° (ESE) 06:07:57 437.485
XW-2B 25 Feb 06:02:06 06:05:57 88° 98° (E) 06:09:45 145.730 - 145.750
STRAND 1 25 Feb 06:04:48 06:09:55 73° 74° (ENE) 06:15:05 437.568
DOVE 4 25 Feb 06:06:14 06:10:56 82° 284° (WNW) 06:15:54 437.250
XW-2A 25 Feb 06:09:50 06:11:50 15° 93° (E) 06:13:50 145.665 - 145.685
XW-2C 25 Feb 06:10:45 06:14:35 71° 285° (WNW) 06:18:22 145.795 - 145.815
NUDT-PHONESAT 25 Feb 06:23:54 06:27:38 60° 285° (WNW) 06:31:19 437.300
LilacSat-2 25 Feb 06:27:24 06:31:04 43° 288° (WNW) 06:34:41 437.200
O/OREOS (USA 219) 25 Feb 06:32:56 06:34:50 12° 48° (NE) 06:36:43 437.305
BEESAT 2 25 Feb 06:37:36 06:41:33 75° 121° (ESE) 06:45:33 435.950
HO-68 25 Feb 06:38:34 06:44:56 34° 96° (E) 06:51:16 435.675
CUTE 1.7 + AOD 2 25 Feb 06:48:12 06:51:59 31° 96° (E) 06:55:43 437.475
Tancredo 1 25 Feb 06:51:06 06:53:24 18° 134° (SE) 06:55:42 437.200
CUBEBUG 2 25 Feb 07:03:26 07:07:16 24° 93° (E) 07:11:03 437.445
CUTE-I 25 Feb 07:05:59 07:10:50 35° 293° (WNW) 07:15:40 437.470
PRISM 25 Feb 07:10:07 07:12:19 14° 63° (ENE) 07:14:32 437.425
AO-73 25 Feb 07:18:14 07:18:58 10° 87° (E) 07:19:42 145.935
FO-29 25 Feb 07:23:28 07:26:17 12° 47° (NE) 07:29:08 435.910
KAITUO 1B 25 Feb 07:24:01 07:25:51 13° 296° (WNW) 07:27:40 145.475/437.950
SO-50 25 Feb 07:25:44 07:29:47 33° 244° (WSW) 07:33:47 436.795
XW-2F 25 Feb 07:29:20 07:30:03 10° 298° (WNW) 07:30:46 145.980 - 146.000
AAUSAT CUBESAT 2 25 Feb 07:36:05 07:39:50 34° 97° (E) 07:43:35 437.432
BEESAT 3 25 Feb 07:39:45 07:42:06 15° 321° (NW) 07:44:27 437.485
UWE-3 25 Feb 07:41:07 07:45:25 35° 96° (E) 07:49:38 435.000/436.395/437.385
XW-2A 25 Feb 07:41:34 07:44:43 32° 288° (WNW) 07:47:50 145.665 - 145.685
SEEDS 25 Feb 07:45:45 07:49:57 88° 281° (W) 07:54:06 437.485
STRAND 1 25 Feb 07:46:57 07:49:38 14° 271° (W) 07:52:20 437.568
DOVE 4 25 Feb 07:47:12 07:47:56 10° 300° (WNW) 07:48:41 437.250
ISS 25 Feb 07:59:46 08:03:04 78° 143° (SE) 08:06:22 437.550
ZACube-1 25 Feb 08:02:49 08:07:00 35° 96° (E) 08:11:07 437.345
O/OREOS (USA 219) 25 Feb 08:10:20 08:14:56 90° 75° (ENE) 08:19:32 437.305
BEESAT 2 25 Feb 08:17:28 08:19:49 15° 321° (NW) 08:22:11 435.950
CUTE 1.7 + AOD 2 25 Feb 08:24:17 08:27:39 23° 293° (WNW) 08:31:00 437.475
HO-68 25 Feb 08:26:01 08:32:50 50° 294° (WNW) 08:39:38 435.675
Tancredo 1 25 Feb 08:26:10 08:29:24 60° 330° (NNW) 08:32:38 437.200
CUBEBUG 2 25 Feb 08:39:33 08:43:59 39° 290° (WNW) 08:48:21 437.445
PRISM 25 Feb 08:43:12 08:47:11 52° 259° (W) 08:51:11 437.425
YUBILEINY 25 Feb 08:48:21 08:55:24 28° 81° (E) 09:02:26 435.215
UNISAT 6 25 Feb 08:49:04 08:53:32 67° 74° (ENE) 08:58:08 437.425
TIGRISAT 25 Feb 08:49:27 08:53:53 63° 74° (ENE) 08:58:27 435.000
AO-73 25 Feb 08:51:12 08:55:47 79° 284° (WNW) 09:00:14 145.935
Oscar 11 25 Feb 08:58:16 09:02:37 76° 284° (WNW) 09:06:54 .
FO-29 25 Feb 09:02:34 09:09:29 54° 68° (ENE) 09:17:00 435.910
DELFI C3 25 Feb 09:10:36 09:14:24 46° 99° (E) 09:18:10 145.870
AAUSAT CUBESAT 2 25 Feb 09:12:01 09:15:06 21° 294° (WNW) 09:18:09 437.432
UWE-3 25 Feb 09:17:51 09:21:41 26° 293° (WNW) 09:25:29 435.000/436.395/437.385
ISS 25 Feb 09:37:00 09:39:48 25° 344° (NNW) 09:42:37 437.550
ZACube-1 25 Feb 09:39:24 09:43:06 25° 294° (WNW) 09:46:45 437.345
DUCHIFAT 1 25 Feb 09:41:38 09:44:34 19° 65° (ENE) 09:47:33 145.980
EO-79 25 Feb 09:51:29 09:55:05 28° 68° (ENE) 09:58:43 145.935-145.965
LO-87 25 Feb 09:57:25 10:00:02 19° 94° (E) 10:02:39 145.935 - 145.965
Tancredo 1 25 Feb 10:03:39 10:06:10 20° 350° (N) 10:08:41 437.200
AIST 2D 25 Feb 10:07:37 10:11:08 64° 75° (ENE) 10:14:41 435.315
NANOSAT C BR1 25 Feb 10:08:12 10:12:06 38° 70° (ENE) 10:16:02 145.865
POLYITAN 1 25 Feb 10:08:29 10:12:28 42° 71° (ENE) 10:16:31 437.675
QB50P2 25 Feb 10:11:21 10:15:25 48° 72° (ENE) 10:19:33 145.880/145.840
HO-68 25 Feb 10:17:53 10:18:53 10° 315° (NW) 10:19:53 435.675
UNISAT 6 25 Feb 10:28:45 10:30:44 13° 271° (W) 10:32:44 437.425
TIGRISAT 25 Feb 10:28:47 10:31:01 13° 271° (W) 10:33:17 435.000
BUGSAT 1 25 Feb 10:38:40 10:42:03 26° 68° (ENE) 10:45:29 437.445
YUBILEINY 25 Feb 10:42:43 10:51:28 66° 281° (WNW) 11:00:15 435.215
DELFI C3 25 Feb 10:46:36 10:48:49 15° 296° (WNW) 10:51:01 145.870
FO-29 25 Feb 10:48:26 10:54:45 34° 268° (W) 11:01:37 435.910
ESTCUBE 1 25 Feb 10:55:30 10:59:49 46° 99° (E) 11:04:07 437.505/2401.250
ISS 25 Feb 11:14:39 11:17:04 18° 4° (N) 11:19:29 437.550
DUCHIFAT 1 25 Feb 11:15:59 11:19:57 41° 262° (W) 11:23:58 145.980
DX 1 25 Feb 11:16:06 11:16:46 10° 89° (E) 11:17:25 434.975-435.025
VELOX 1 25 Feb 11:21:33 11:25:23 28° 96° (E) 11:29:12 145.980
EO-79 25 Feb 11:27:12 11:30:48 26° 265° (W) 11:34:24 145.935-145.965
AO-85 25 Feb 11:28:20 11:31:16 20° 43° (NE) 11:34:11 145.980
SPROUT 25 Feb 11:30:13 11:34:00 29° 96° (E) 11:37:45 437.525
LO-87 25 Feb 11:30:25 11:33:31 27° 290° (WNW) 11:36:36 145.935 - 145.965
Tancredo 1 25 Feb 11:40:46 11:43:16 20° 10° (N) 11:45:45 437.200
